Погода в Хурмулях

Россия / Хабаровский край     51°00′27″N   136°53′38″E
темп.,
°C
ветер,
м/с
пор.,
м/с
влажн.,
%
обл.,
%
осадки,
мм/ч
давл.,
гПа
погр.,
м
20 января, ср
ср2001:00−28ююв23930 0.0 102153
04:00−28ююв25920 0.0 1021133
07:00−29ююв25930 0.0 1023125
10:00−26ююв4119110 0.0 1023448
13:00−22ююв6128498 0.0 1022591
16:00−22ююв6138498 0.0 1020637
19:00−22ююв6148897 0.0 1021536
22:00−21ююв6148798 0.0 1018590
21 января, чт
чт2101:00−20ююв51295100 0.4 1016647
04:00−19ю51195100 0.9 1013507
07:00−19ююв2697100 0.8 1012331
10:00−19ююз1395100 1.2 1013234
13:00−17зюз1183100 0.1 1013510
16:00−17сз1284100 0.2 1013411
19:00−21ююв019898 0.1 101620
22:00−21зюз119898 0.2 101720
22 января, пт
пт2201:00−22зсз0099100 0.1 101720
04:00−23з0099100 0.1 101820
07:00−24зюз0198100 0.1 101820
10:00−24зюз0095100 0.1 101931
13:00−19юв117436 0.0 1018451
16:00−19ю358640 0.0 1018584
19:00−25ююв249790 0.0 102086
22:00−26ю229886 0.0 102223
23 января, сб
сб2301:00−27ююв129990 0.0 102220
04:00−28ююв229894 0.0 102422
07:00−29ююв229897 0.0 102539
10:00−27ююв389696 0.0 1026314
13:00−23ююв488798 0.0 1024430
16:00−22ююв498680 0.0 1025411
19:00−24ююв4118910 0.0 1026332
22:00−25ююв312905 0.0 1027344
24 января, вс
вс2401:00−24ююв3119332 0.0 1025374
04:00−24ююв3119365 0.0 1024413
07:00−21ююв4119297 0.0 1022456
10:00−20ю399398 0.0 1021455
13:00−17ю248397 0.0 1020342
16:00−16ссз127973 0.0 1022503
19:00−22сз129190 0.0 102720
22:00−23сз119595 0.0 102920